Jefferson City, MO

8:21 AM CDT on September 23, 2017 (GMT -0500)
Jefferson City Memorial

Weather History for KJEF - September, 2012

Change the Weather History Date:

Thursday, September 13, 2012

  Actual Average Record
Temperature  
Mean Temperature 65 °F -  
Max Temperature 73 °F 84 °F 101 °F (1939)
Min Temperature 57 °F 58 °F 39 °F (2014)
Growing Degree Days 15 (Base 50)    
Moisture  
Dew Point 55 °F    
Average Humidity 73    
Maximum Humidity 84    
Minimum Humidity 61    
Precipitation  
Precipitation 0.00 in - - ()
Sea Level Pressure  
Sea Level Pressure 30.21 in    
Wind  
Wind Speed 5 mph (NNE)    
Max Wind Speed 15 mph    
Max Gust Speed 22 mph    
Visibility 10 miles    
Events      
Averages and records for this station are not official NWS values.
T = Trace of Precipitation, MM = Missing Value Source: NWS Daily Summary

Daily Weather History Graph

Daily Weather History Graph

Search for Another Location

Airport or City:

Trip Planner

Search our weather history database for the weather conditions in past years. The results will help you decide how hot, cold, wet, or windy it might be!

Date:

Astronomy

Sep. 13, 2012 Rise Set
Actual Time 6:48 AM CDT 7:19 PM CDT
Civil Twilight 6:22 AM CDT 7:45 PM CDT
Nautical Twilight 5:50 AM CDT 8:17 PM CDT
Astronomical Twilight 5:18 AM CDT 8:49 PM CDT
Moon 4:10 AM CDT (9/13) 5:41 PM CDT (9/13)
Length of Visible Light 13h 23m
Length of Day
12h 30m
Waning Crescent, 7% of the Moon is Illuminated
Sep 13
Waning Crescent
Sep 15
New
Sep 22
First Quarter
Sep 29
Full
Oct 8
Last Quarter

Hourly Weather History & Observations

Time (CDT) Temp. Dew Point Humidity Pressure Visibility Wind Dir Wind Speed Gust Speed Precip Events Conditions
12:53 AM 68.0 °F 57.0 °F 68% 30.10 in 10.0 mi East 3.5 mph - N/A   Clear
1:53 AM 66.0 °F 57.0 °F 73% 30.11 in 10.0 mi ESE 3.5 mph - N/A   Clear
2:53 AM 66.0 °F 57.0 °F 73% 30.09 in 10.0 mi East 4.6 mph - N/A   Clear
3:53 AM 63.0 °F 57.0 °F 81% 30.10 in 10.0 mi ESE 3.5 mph - N/A   Clear
4:53 AM 63.0 °F 57.0 °F 81% 30.10 in 10.0 mi ESE 3.5 mph - N/A   Clear
5:53 AM 62.1 °F 57.0 °F 84% 30.12 in 10.0 mi Calm Calm - N/A   Clear
6:53 AM 62.1 °F 57.0 °F 84% 30.14 in 10.0 mi Calm Calm - N/A   Scattered Clouds
7:53 AM 64.0 °F 57.9 °F 80% 30.16 in 10.0 mi Calm Calm - N/A   Partly Cloudy
8:53 AM 68.0 °F 59.0 °F 73% 30.18 in 10.0 mi NNW 3.5 mph - N/A   Mostly Cloudy
9:53 AM 72.0 °F 59.0 °F 64% 30.18 in 10.0 mi SSE 3.5 mph - N/A   Mostly Cloudy
10:53 AM 72.0 °F 59.0 °F 64% 30.18 in 10.0 mi SE 3.5 mph - N/A   Overcast
11:53 AM 73.0 °F 60.1 °F 64% 30.18 in 10.0 mi Calm Calm - N/A   Overcast
12:53 PM 73.0 °F 60.1 °F 64% 30.18 in 10.0 mi NW 3.5 mph - N/A   Overcast
1:53 PM 71.1 °F 57.0 °F 61% 30.18 in 10.0 mi NNW 10.4 mph - N/A   Overcast
2:53 PM 69.1 °F 55.0 °F 61% 30.17 in 10.0 mi North 11.5 mph - N/A   Overcast
3:53 PM 66.0 °F 54.0 °F 65% 30.18 in 10.0 mi North 15.0 mph 21.9 mph N/A   Mostly Cloudy
4:53 PM 63.0 °F 53.1 °F 70% 30.21 in 10.0 mi North 10.4 mph 20.7 mph N/A   Overcast
5:53 PM 62.1 °F 53.1 °F 72% 30.22 in 10.0 mi North 11.5 mph - N/A   Mostly Cloudy
6:46 PM 60.8 °F 53.6 °F 77% 30.27 in 10.0 mi North 8.1 mph 17.3 mph N/A   Overcast
7:43 PM 60.8 °F 53.6 °F 77% 30.28 in 10.0 mi Calm Calm - N/A   Overcast
7:53 PM 61.0 °F 53.1 °F 75% 30.26 in 10.0 mi Variable 4.6 mph - N/A   Overcast
8:49 PM 60.8 °F 51.8 °F 72% 30.32 in 10.0 mi North 10.4 mph 17.3 mph N/A   Overcast
8:53 PM 60.1 °F 52.0 °F 75% 30.30 in 10.0 mi North 6.9 mph 17.3 mph N/A   Overcast
9:50 PM 59.0 °F 51.8 °F 77% 30.33 in 10.0 mi North 10.4 mph 17.3 mph N/A   Overcast
9:53 PM 59.0 °F 52.0 °F 78% 30.30 in 10.0 mi North 10.4 mph 17.3 mph N/A   Overcast
10:53 PM 57.9 °F 50.0 °F 75% 30.30 in 10.0 mi Variable 6.9 mph 16.1 mph N/A   Overcast
11:20 PM 57.2 °F 50.0 °F 77% 30.33 in 10.0 mi North 6.9 mph - N/A   Overcast
11:53 PM 57.0 °F 48.0 °F 72% 30.31 in 10.0 mi North 9.2 mph - N/A   Overcast